Wind_Speed
11 14 17 19 21 19 22 25 25 30 38 47 53 52 51 43 41 42 46 51 49 46 47 49 53 56 58 60 63 66 69 70 72 74 74 75 76 76 75 75 76 78 79
14 16 20 19 20 24 25 30 36 42 46 50 52 52 50 48 48 45 44 44 45 46 51 54 58 60 63 66 70 74 76 78 79 80 80 81 80 79 79 79 79 79 79
15 17 18 20 28 33 37 37 41 44 46 50 50 44 42 41 42 42 43 43 48 53 57 61 63 65 68 70 75 77 79 83 84 84 85 88 91 92 89 87 85 83 81
19 22 21 26 30 37 37 40 42 49 50 49 47 45 42 42 42 43 46 50 54 59 62 62 63 68 74 78 80 83 88 91 94 94 95 96 95 95 95 94 91 90 90
23 26 31 36 37 33 39 42 52 52 49 47 45 43 42 44 47 49 52 55 57 59 61 66 71 78 82 85 87 92 95 97 96 94 94 93 93 95 97 96 93 92 91
27 26 34 39 41 40 44 48 41 42 43 41 40 42 44 46 47 51 55 59 62 65 71 76 83 88 89 91 93 96 97 96 95 96 94 90 87 83 80 79 76 72 71
28 25 29 38 39 42 43 39 43 41 41 42 45 46 48 51 54 58 62 64 67 73 78 82 86 87 90 94 97 98 101 102 101 94 87 81 71 64 65 61 63 68 71
21 22 28 32 37 40 41 43 41 42 46 49 50 50 51 53 57 61 64 68 72 77 81 85 89 93 95 99 101 101 101 97 87 81 71 64 65 68 59 61 66 67 53
20 23 27 32 37 36 37 40 42 41 43 46 48 51 55 58 61 63 67 73 77 80 85 91 95 99 101 101 102 104 99 80 72 66 61 63 61 57 60 66 55 57 52
23 26 28 29 32 35 39 43 47 50 52 53 54 57 59 62 64 68 73 77 82 87 91 95 97 100 101 102 100 85 75 66 62 60 54 54 58 58 55 55 56 57 58
27 30 33 36 38 41 44 47 51 54 57 58 59 61 63 65 70 74 77 81 86 89 93 94 95 99 100 93 77 65 59 57 51 49 53 56 51 49 53 54 56 55 53
34 37 40 42 44 47 49 51 54 57 58 60 62 64 66 70 74 76 80 85 87 91 92 96 98 99 89 73 60 54 45 40 41 40 41 45 47 50 52 52 49 45 45
38 40 43 45 47 49 51 54 57 58 61 62 63 66 70 73 75 78 83 86 90 92 98 100 99 86 68 52 44 36 32 33 39 41 41 44 49 46 47 43 42 44 47
40 42 45 47 49 51 53 56 59 60 60 62 65 69 72 75 77 82 86 88 90 97 99 97 83 65 48 37 34 35 33 35 39 43 43 50 45 48 43 40 43 46 48
42 45 47 50 52 53 55 59 58 59 60 64 68 71 74 77 80 84 87 89 96 96 95 83 65 49 39 34 35 35 36 39 44 46 46 51 48 47 40 40 42 44 47
45 47 51 53 54 55 57 58 58 59 62 65 69 73 76 79 83 86 87 97 97 94 84 67 51 41 35 33 36 37 39 42 46 46 48 48 47 41 37 39 42 46 49
47 50 55 56 56 56 59 59 58 61 64 69 72 75 78 82 86 88 95 97 93 84 69 53 42 37 33 35 37 38 41 44 48 46 49 46 44 36 36 38 43 47 46
50 52 56 55 56 58 59 58 60 64 69 71 74 78 81 84 87 93 96 92 82 69 56 44 38 34 33 36 36 38 41 45 47 46 50 45 39 34 36 38 44 46 43
51 53 54 54 56 59 59 60 64 67 70 74 78 81 83 85 92 93 90 84 70 58 45 37 33 32 34 36 36 38 41 43 43 44 46 43 35 34 34 39 42 41 39
52 53 54 55 58 60 61 63 66 69 73 78 79 81 83 90 92 88 84 71 60 49 38 34 32 32 33 35 36 38 41 42 41 44 41 41 32 31 32 37 39 38 35
55 55 55 58 60 62 63 65 67 72 77 78 79 81 90 93 87 82 71 61 52 41 36 33 33 34 34 36 37 39 42 38 41 41 36 35 29 28 30 35 36 36 32
56 56 58 60 62 63 65 67 71 77 78 78 80 89 91 88 81 70 61 52 44 36 34 34 34 32 33 34 37 39 39 38 40 39 34 31 25 24 27 32 31 32 29
58 58 60 62 63 66 68 71 76 78 76 79 88 89 87 80 69 61 53 45 38 34 34 33 31 31 33 34 36 37 38 39 39 38 31 28 22 22 24 27 27 28 26
59 60 60 61 66 69 71 74 78 74 79 87 87 87 79 68 61 53 46 40 35 32 30 30 31 32 33 34 35 36 37 38 37 36 30 27 22 20 21 22 22 23 23
58 59 62 63 68 70 73 78 73 79 84 85 85 77 67 62 55 46 39 35 31 29 29 31 31 31 31 33 34 35 36 36 36 35 28 26 24 18 17 17 19 19 19
58 61 64 67 69 72 75 71 79 82 82 82 74 66 62 58 48 40 34 31 32 32 29 29 28 29 32 33 33 34 35 35 34 32 27 23 25 18 16 14 16 16 15
Wind_Direction
278 287 296 292 294 305 309 305 301 296 304 307 313 312 310 310 304 300 296 297 301 301 302 303 303 304 305 306 305 306 304 304 302 300 297 295 294 293 291 289 287 285 282
288 289 295 296 297 306 305 304 305 307 306 307 308 305 303 299 295 296 298 299 301 303 304 305 306 307 306 306 306 306 305 303 300 298 296 295 293 291 290 288 285 282 279
294 297 300 301 302 305 307 307 303 300 302 304 303 301 299 300 301 301 301 302 305 307 308 308 307 306 306 305 304 304 303 303 302 301 300 300 297 295 293 291 288 283 278
294 292 285 292 296 299 300 301 303 308 306 306 304 303 304 304 304 304 305 307 309 309 305 302 301 303 303 304 303 305 307 308 307 305 303 300 296 293 291 288 284 279 277
311 299 297 298 301 296 294 291 308 308 307 305 305 304 304 306 306 305 304 301 300 301 302 304 306 307 307 308 309 309 306 305 303 301 299 295 293 288 285 282 279 277 273
306 298 294 300 294 291 302 312 306 303 303 300 301 299 297 297 294 295 299 303 305 308 310 309 311 311 310 308 307 305 303 304 302 300 297 294 290 289 289 290 287 287 285
307 300 296 299 303 305 306 301 299 295 293 294 296 298 299 297 298 302 305 307 308 309 310 311 311 309 307 307 307 306 305 306 306 303 298 298 297 295 297 295 289 290 295
300 297 293 297 299 299 296 296 296 293 294 297 299 299 300 301 304 305 307 308 308 309 309 310 311 309 309 309 309 309 307 305 301 299 301 301 299 298 294 294 296 297 291
318 311 304 303 300 302 302 300 299 297 299 302 304 305 306 307 308 309 308 308 309 310 311 314 314 311 311 309 309 307 307 302 299 299 298 295 298 297 303 305 299 297 291
321 317 310 307 308 310 308 307 308 310 309 308 306 307 308 309 309 309 310 311 312 314 314 314 311 310 310 309 309 307 304 302 301 298 299 297 297 305 301 298 297 296 295
324 321 319 316 316 313 314 315 313 310 308 307 307 308 309 310 311 311 312 314 315 315 312 311 311 312 312 312 309 305 303 302 304 304 306 305 303 303 300 299 298 296 294
328 325 322 320 319 318 314 311 309 307 307 308 308 309 310 310 310 312 314 315 315 313 312 314 315 316 315 312 309 309 309 312 316 310 309 306 306 304 302 301 298 296 296
322 321 319 318 315 313 310 308 308 308 307 307 308 309 310 310 311 313 314 315 314 315 317 317 318 317 314 313 313 315 322 317 312 314 312 310 309 306 304 300 299 298 297
317 317 316 316 313 310 308 311 308 308 307 307 309 310 311 311 313 315 316 314 317 318 319 320 319 315 314 315 317 318 317 318 319 317 311 315 313 314 311 307 306 303 300
316 315 313 312 310 309 310 312 309 307 308 309 311 311 312 314 316 316 316 317 319 320 321 321 317 314 312 311 311 313 314 316 319 318 317 321 318 316 312 310 309 310 308
315 314 312 310 309 311 312 310 309 308 309 311 311 312 315 316 316 316 317 319 321 322 322 319 315 313 309 309 311 309 313 315 318 318 321 320 317 314 313 312 314 314 313
313 312 309 309 312 310 311 310 307 308 310 311 313 315 316 317 318 318 319 321 322 323 322 317 314 312 310 312 309 308 310 314 317 316 322 320 318 313 314 315 318 318 316
311 308 308 310 308 309 309 307 308 310 312 313 315 317 318 318 318 319 321 322 323 323 320 315 314 311 310 311 310 309 311 314 318 318 323 320 318 316 316 320 322 323 321
306 306 306 305 306 309 309 310 311 312 313 315 317 319 320 319 319 322 323 323 323 322 317 315 311 308 307 314 314 314 313 315 317 321 323 321 319 319 320 325 327 329 328
305 304 305 306 309 311 312 313 313 314 316 318 319 319 319 320 321 324 323 322 323 321 317 314 310 310 313 317 317 316 314 320 321 324 323 322 320 320 324 328 333 338 339
305 307 308 309 311 312 312 313 315 318 319 319 319 319 320 321 324 323 322 322 322 319 317 313 309 309 312 315 318 318 320 322 323 324 324 323 319 321 328 332 338 344 348
308 309 309 311 310 311 313 315 319 321 319 319 320 321 321 323 323 322 322 321 319 317 315 313 313 312 315 318 320 322 323 323 324 327 327 326 320 323 328 335 341 348 351
308 308 309 309 311 313 315 318 319 319 319 320 321 321 322 322 322 322 322 320 319 317 315 315 316 317 317 321 324 324 324 325 327 331 330 330 321 323 328 336 343 349 356
308 308 310 311 311 314 315 317 318 319 321 322 321 321 322 321 322 322 321 321 320 317 317 318 319 319 320 325 326 325 325 327 329 333 333 330 324 322 322 334 343 349 356
305 307 309 309 310 313 314 315 319 322 322 321 321 321 321 321 322 321 319 320 320 318 317 319 320 321 323 326 327 327 328 329 331 333 332 330 331 317 321 332 343 348 353
304 307 306 309 312 312 314 318 322 322 320 321 321 321 321 321 321 319 316 317 319 317 318 318 321 323 326 327 328 330 331 331 332 333 333 330 329 316 314 324 338 344 351
Height
5807 5806 5805 5803 5801 5800 5797 5795 5791 5788 5785 5782 5778 5774 5769 5765 5762 5759 5756 5752 5747 5743 5738 5734 5729 5723 5717 5712 5706 5701 5695 5690 5686 5682 5677 5672 5665 5662 5659 5655 5652 5650 5647
5803 5803 5802 5800 5798 5796 5793 5790 5787 5783 5779 5775 5770 5766 5762 5757 5754 5750 5746 5742 5738 5734 5729 5723 5716 5709 5703 5697 5690 5683 5676 5670 5664 5659 5653 5648 5645 5641 5636 5633 5628 5625 5623
5800 5799 5796 5794 5793 5790 5788 5785 5782 5778 5773 5768 5763 5757 5752 5747 5743 5739 5735 5732 5727 5721 5714 5707 5699 5693 5686 5680 5672 5666 5660 5652 5643 5636 5627 5619 5613 5607 5606 5603 5597 5595 5594
5797 5795 5793 5791 5788 5785 5782 5778 5774 5769 5763 5756 5751 5746 5742 5738 5734 5730 5726 5721 5715 5708 5701 5694 5687 5680 5671 5663 5655 5646 5635 5624 5614 5605 5598 5589 5581 5575 5574 5573 5569 5564 5559
5791 5790 5787 5782 5781 5778 5776 5771 5764 5758 5753 5748 5744 5739 5735 5731 5726 5721 5716 5711 5705 5697 5689 5680 5672 5662 5651 5640 5629 5620 5611 5602 5593 5584 5576 5567 5556 5542 5531 5531 5530 5528 5528
5787 5785 5780 5776 5773 5770 5766 5761 5758 5753 5747 5743 5739 5734 5729 5724 5719 5713 5706 5699 5689 5679 5671 5661 5650 5639 5629 5619 5612 5600 5587 5577 5566 5555 5543 5533 5525 5517 5506 5499 5495 5495 5500
5781 5779 5774 5771 5766 5763 5760 5756 5752 5747 5742 5737 5732 5726 5719 5713 5706 5699 5691 5682 5673 5663 5654 5645 5634 5624 5612 5599 5586 5572 5556 5545 5532 5521 5511 5503 5496 5492 5487 5480 5476 5473 5475
5776 5773 5770 5766 5761 5757 5754 5749 5744 5738 5734 5727 5720 5714 5708 5701 5694 5685 5677 5668 5659 5651 5641 5630 5617 5602 5587 5572 5556 5542 5529 5515 5505 5496 5489 5483 5479 5474 5469 5464 5458 5456 5452
5770 5767 5764 5760 5756 5752 5746 5740 5735 5729 5724 5718 5710 5703 5696 5689 5681 5673 5664 5655 5645 5634 5621 5607 5592 5575 5563 5549 5533 5517 5506 5494 5484 5478 5474 5469 5464 5458 5451 5445 5438 5433 5434
5765 5762 5759 5755 5750 5743 5737 5730 5723 5715 5709 5703 5697 5690 5683 5675 5666 5658 5648 5638 5625 5613 5599 5586 5572 5556 5541 5527 5510 5493 5480 5473 5467 5463 5459 5455 5449 5444 5438 5431 5425 5419 5413
5759 5754 5749 5743 5738 5731 5724 5717 5710 5704 5697 5690 5683 5676 5669 5660 5651 5641 5631 5620 5609 5595 5582 5569 5553 5536 5518 5499 5485 5474 5467 5460 5454 5451 5447 5441 5436 5431 5425 5417 5412 5405 5398
5749 5743 5738 5732 5726 5719 5713 5707 5700 5693 5685 5677 5669 5662 5654 5646 5637 5627 5616 5605 5593 5578 5562 5545 5528 5510 5494 5479 5468 5460 5453 5449 5444 5441 5436 5431 5425 5419 5411 5404 5397 5391 5386
5741 5736 5730 5724 5717 5711 5704 5697 5689 5680 5673 5666 5658 5651 5642 5632 5622 5612 5601 5589 5575 5559 5541 5522 5505 5489 5475 5465 5457 5451 5446 5441 5438 5433 5428 5422 5414 5407 5399 5392 5385 5380 5375
5734 5728 5722 5715 5708 5702 5694 5686 5677 5669 5662 5654 5646 5637 5628 5619 5609 5597 5584 5570 5553 5537 5519 5501 5486 5473 5463 5456 5450 5444 5439 5435 5430 5424 5417 5410 5401 5393 5386 5380 5374 5367 5361
5724 5718 5711 5705 5698 5690 5683 5676 5667 5659 5650 5642 5634 5625 5615 5604 5592 5579 5565 5550 5533 5516 5498 5483 5469 5460 5454 5448 5443 5438 5433 5427 5421 5414 5407 5398 5389 5381 5374 5368 5362 5355 5347
5714 5707 5700 5693 5686 5680 5673 5664 5655 5647 5639 5631 5622 5611 5600 5588 5575 5561 5546 5529 5511 5495 5481 5467 5457 5450 5445 5440 5436 5430 5425 5419 5412 5405 5398 5389 5380 5372 5366 5359 5351 5342 5332
5703 5696 5688 5681 5675 5667 5659 5651 5644 5636 5627 5618 5606 5595 5583 5570 5555 5541 5526 5508 5491 5475 5463 5454 5447 5441 5436 5432 5427 5422 5416 5410 5403 5396 5388 5379 5370 5363 5357 5350 5341 5331 5320
5691 5684 5676 5670 5663 5656 5648 5640 5632 5623 5613 5602 5591 5578 5566 5552 5536 5520 5503 5489 5474 5461 5450 5442 5437 5432 5429 5425 5420 5414 5408 5401 5394 5387 5379 5370 5362 5355 5349 5342 5332 5321 5310
5680 5673 5667 5660 5652 5644 5635 5627 5617 5608 5597 5586 5574 5562 5548 5534 5518 5501 5486 5471 5458 5448 5440 5434 5429 5425 5421 5417 5411 5406 5400 5394 5386 5378 5370 5361 5354 5348 5342 5334 5325 5314 5302
5669 5663 5656 5648 5639 5630 5621 5612 5603 5593 5582 5570 5557 5543 5530 5516 5500 5484 5470 5457 5446 5437 5431 5426 5422 5418 5413 5409 5403 5398 5392 5386 5379 5370 5362 5353 5347 5341 5335 5328 5319 5309 5297
5657 5650 5641 5633 5625 5616 5608 5598 5588 5578 5567 5554 5541 5528 5514 5499 5483 5470 5457 5445 5436 5429 5424 5419 5415 5411 5407 5402 5396 5390 5384 5378 5371 5364 5355 5347 5341 5336 5331 5324 5315 5306 5296
5643 5635 5627 5619 5611 5603 5594 5584 5574 5563 5551 5539 5526 5512 5496 5482 5469 5457 5445 5436 5428 5422 5417 5412 5408 5404 5400 5395 5389 5383 5376 5370 5364 5357 5349 5342 5336 5332 5327 5321 5313 5305 5296
5629 5621 5614 5605 5596 5587 5579 5569 5558 5548 5536 5524 5510 5495 5482 5468 5455 5445 5435 5427 5421 5415 5410 5405 5401 5397 5392 5388 5382 5376 5369 5363 5356 5350 5343 5337 5332 5328 5324 5319 5312 5306 5298
5615 5608 5601 5592 5583 5573 5564 5554 5545 5533 5521 5507 5493 5480 5468 5455 5444 5434 5426 5419 5413 5408 5403 5399 5395 5390 5386 5381 5376 5370 5363 5356 5350 5343 5338 5333 5328 5325 5322 5317 5312 5307 5301
5603 5596 5587 5579 5570 5560 5550 5540 5530 5518 5505 5491 5478 5466 5454 5443 5433 5425 5418 5412 5407 5402 5398 5393 5389 5385 5380 5376 5370 5364 5358 5351 5344 5338 5333 5328 5324 5321 5319 5316 5311 5307 5303
5590 5582 5573 5566 5557 5546 5536 5525 5514 5502 5490 5478 5465 5452 5442 5432 5424 5417 5411 5406 5401 5396 5392 5388 5384 5380 5375 5370 5365 5359 5352 5345 5340 5334 5329 5325 5321 5318 5316 5314 5311 5307 5304